Starlink 3675

operational
NORAD ID: 51963 Int'l Des: 2022-025 Owner: SPXS Country: US Constellation: starlink
LEOCIRCULARSTARLINK_TYPE

About Starlink 3675

Description loading...

Live Position

Loading 3D Globe...

Upcoming Passes

Altitude History

Altitude vs Time

uPlot chart will show altitude changes over time

Two-Line Element Set

1 51963U 22025H 25259.21762794 .00001011 00000-0 86752-4 0 9991
2 51963 53.0553 84.8039 0001020 115.7516 244.3578 15.06404244194757
Epoch: Sep 16, 2025 • Age: 7 hours

Current Status

Altitude 563.3 km
Velocity 7.58 km/s
Sub-Earth Point -46.02°S, 128.44°E
Launch Date Mar 9, 2022
Age 3.5 years
Type internet

Technical Details

Classification Payload
Mass 297.00 kg
Dry Mass 275.00 kg
Total Mass 297.00 kg
Length 0.20 m
Diameter 2.80 m
Span 9.00 m
Shape Box + pan
Manufacturer SPXS
Bus Type Starlink
Phase Status In Orbit
Owner/State SPXS/US

Large Constellations

Loading constellations...